Погода Озерная

Погода Озерная : погода сейчас, прогноз погоды и архив. Всё, что Вы хотите узнать о погоде Озерная!

Хотите узнать прогноз погоды Озерная? Тогда Вам сюда: Погода Озерная

Поиск расширенной информации на нашем сайте:

Другие новости

Новости СМИ2

Главная страница сайта

Новости сайта

02.10.2013

Напоминаем, что на нашем новом сайте вы можете получить высокодетализированные прогнозы погоды по пунктам России, СНГ и мира (включающие важные для авиации метеовеличины, такие как направление и скорость ветра, видимость, явления погоды, количество и форма облачности, нижняя и верхняя граница облачности), а также ознакомиться с разнообразными материалами по авиационной метеорологии и подборкой полезных ссылок на эту тему.

Сайт Метеоцентр.Азия посвящён разработке технологий оптимизации авиаметеорологического обслуживания, включая проектирование и перспективное создание нескольких автоматизированных авиаметеорологических систем:
- система выпуска высокодетальных прогностических карт явлений погоды для нижнего воздушного пространства по России и ближнему зарубежью;
- система верификации прогнозов TAF (выпускаемых синоптиками официальных АМСГ РФ и ближнего зарубежья) и AUTOTAF (выпускаемых сайтом Метеоцентр.Азия) - выявление ошибок, онлайн-сопоставление с фактической погодой METAR, автоматическое внесение коррективов в прогнозы при резком отклонении фактической погоды от прогноза, подсчёт оправдываемости прогнозов по элементам и в целом;
- система обработки, анализа и отображения авиаметеорологической информации для применения провайдерами метеорологической информации.


Погода Озерная - сегодня

Время (UTC), дата Ветер
(°,м/с) 
Видим.   Явления Облачность Т
(°С)
Тd
(°С)
f(%) Тe
(°С)
Pmin
(гПа)
dP
(гПа)
Po
(мм)
O2
(г/м3)
Тmin Tmax R s Состояние
почвы
21 25.05.17 250 (З) 10 км    10/10 600 м 
[Sc]
+6.5 +4 84 +6  1014.8  -0.5  758  298  +3.9        сухая 
00 26.05.17 320 (СЗ) 20000 м    8/6 600 м верхняя 
[Sc|Ci fib]
+6.8 +4.3 84 +5  1012.7  -2.1  757  297           
03 26.05.17 310 (СЗ) 20000 м    8/4 600 м средняя, верхняя 
[Sc|Ac trans|Ci fib]
+7.9 +4.9 81 +7  1011.7  -1  756  295           
06 26.05.17 080 (В) 20000 м    9/9 600 м 
[Sc]
+9.8 +4.4 69 +8  1010  -1.6  755  293           
09 26.05.17 010 (С) 4000 м  слаб. ливневой дождь  10/10 200 м кучево-дожд. 
[Cb cap]
+5.9 +5 94 +6  1009.7  -0.4  755  297    +13.1     
12 26.05.17 330 (СЗ) 2000 м  слаб. ливневой дождь  10/10 200 м кучево-дожд. 
[Cb cap]
+5.5 +5 97 +3  1009.9  0.2  755  297           
15 26.05.17 130 (ЮВ) 4000 м  слаб. ливневой дождь  9/9 300 м кучево-дожд. 
[Cb cap]
+4.3 +3.8 97 +5  1008.9  -1  754  299           
18 26.05.17 240 (ЮЗ) 2000 м  слаб. ливневой дождь  10/10 100 м кучево-дожд. 
[Cb cap]
+3.9 +3.5 97 +2  1009.1  0.2  754  299           
21 26.05.17 270 (З) 0500 м  слаб. морось{ливн. осадки}  ?/?  
+3.6 +3.2 97 +4  1009.5  0.4  755  300  +3.5      мокрая 
03 27.05.17 310 (СЗ) 4000 м  слаб. морось  10/10 200 м 
[St]
+4.6 +4.1 97 +3  1010.1  0.6  755  299           
06 27.05.17 330 (СЗ) 4000 м  дымка{морось}  10/10 200 м 
[St]
+4.1 +3.5 96 +2  1010.2  0.1  755  299           
12 27.05.17 190 (Ю) 2000 м  слаб. морось{туман}  10/10 100 м 
[St]
+2.2 +1.9 98 +1  1011.5  0.4  756  302           
15 27.05.17 240 (ЮЗ) 0500 м  туман{морось}  ?/?  
+1.8 +1.6 99 +1  1011.4  0.1  756  302           
18 27.05.17 360 (С) 0500 м  слаб. морось{туман}  ?/?  
+2.1 +1.8 98 +3  1010.9  -0.4  756  302           
21 27.05.17 350 (С) 2000 м  слаб. морось{туман}  10/10 100 м 
[St]
+2.5 +2.3 99 +1  1011.2  0.3  756  301  +1.4    0.0    влажная 
03 28.05.17 310 (СЗ) 20000 м    9/9 200 м 
[St]
+4.9 +3.4 90 +3  1011.1  -0.1  756  299           
06 28.05.17 270 (З) 20000 м    10/10 200 м 
[St]
+4.1 +2.8 91 +5  1010.6  -0.5  755  299           
12 28.05.17 тихо ()   0200 м  туман{морось}  ?/?  
+3 +2.7 98 +3  1009.4  -0.3  754  300           
15 28.05.17 090 (В) 0500 м  туман{морось}  ?/?  
+0.5 +0.4 99 1007.6  -1.9  753  303           
18 28.05.17 190 (Ю) 0500 м  туман{морось}  ?/?  
+0.8 +0.6 99 -2  1006.9  -0.7  752  302           
21 28.05.17 350 (С) 20000 м  {туман}  8/3 600 м средняя, верхняя 
[Sc|Ac trans|Ci fib]
+5.3 +5 98 +6  1005.9  -0.9  752  296  -0.2    0.0    влажная 
03 29.05.17 230 (ЮЗ) 20000 м    10/8 1000 м средняя 
[Sc|Ac trans]
+9.4 +6.1 80 +10  1003.6  -0.8  750  291           
06 29.05.17 290 (З) 20000 м    9/9 1000 м 
[Sc]
+8 +5.8 86 +9  1003.5  -0.1  750  293           
12 29.05.17 190 (Ю) 20000 м    10/10 1000 м 
[Sc]
+6.3 +4.6 89 +5  1005.8  1.1  752  295           
15 29.05.17 210 (ЮЗ) н/о    н/о 
+5.9 +3.7 86 +5  1006.8  752  296           
Время (UTC), дата Ветер
(°,м/с) 
Видим.   Явления Облачность Т
(°С)
Тd
(°С)
f(%) Тe
(°С)
Pmin
(гПа)
dP
(гПа)
Po
(мм)
O2
(г/м3)
Тmin Tmax R s Состояние
почвы

Для получения пояснительной информации подведите курсор к названию столбца.

ПОГОДА Озерная - архив

Всё, что Вы хотите узнать о погоде Озерная - удобно и подробно!

Выберите нужную дату (начиная с 1 января 2015* года) и нажмите кнопку "Найти".
Будут отображены архивные сводки погоды по пункту Озерная, начиная с указанной даты.


Отображать данные в формате CSV (для использования в таблицах Excel)


Внимание! Наш архив погоды предназначен исключительно для личного некоммерческого использования в познавательных целях. Если Вам необходимы официальные справки о состоянии погоды (для производственных, юридических, коммерческих и т.п. целей), обращайтесь в органы Росгидромета.

*Примечание: данная дата относится к архиву по метеостанциям СССР (Россия, СНГ, Балтия).
Архив по метеостанциям Зарубежной Европы и Азии (кроме Китая) хранится 10 дней, по другим регионам земного шара (Китай, Африка, Америка, Австралия, Океания) - 1 день.

Озерная - район местоположения метеостанции


Название, широта, долгота, высота метеостанции:
Озерная 51.5°ш. 156.5°д. 28 м над ур. моря [Российская Федерация]

Дополнительная информация

В oтличие oт бoльшинства пoгoдных сайтoв мы публикуем пoдрoбную метеoинфoрмацию в детальнoм прoфессиoнальнoм фoрмате.

Характеристики температуры и влажнoсти вoздуха измеряются на высoте 2 м в тени вдали oт зданий и деревьев.
Скoрoсть ветра измеряется на высoте 10 м (на урoвне рoста челoвека скoрoсть ветра ниже в 1.5-2 раза). Если метеoстанция нахoдится в гoрoде или в лесу, тo скoрoсть ветра занижена на 2-4 м/с пo сравнению с oткрытым местoм. Скoрoсть ветра над акватoриями крупных рек и oзёр, а также на вершинах хoлмoв на 2-5 м/с выше, чем в oбычных услoвиях.
Атмoсфернoе давление в разных тoчках местнoсти мoжет значительнo oтличаться oт давления на метеoстанции, в зависимoсти oт услoвий рельефа (при пoдъёме на 10 м давление пoнижается примернo на 1 мм рт.ст.).